Radiation Dose measured at Intake/Vertical shaft monitor
Date,Time,Intake(cps),Vertical shaft(cps),Rain
2024/05/07,00:00,6.3,4.7,Yes
2024/05/07,00:10,6.4,4.5,No
2024/05/07,00:20,6.4,4.6,No
2024/05/07,00:30,6.4,4.6,No
2024/05/07,00:40,6.4,4.6,No
2024/05/07,00:50,6.3,4.7,No
2024/05/07,01:00,6.4,4.6,No
2024/05/07,01:10,6.3,4.4,No
2024/05/07,01:20,6.4,4.6,Yes
2024/05/07,01:30,6.4,4.6,Yes
2024/05/07,01:40,6.4,4.6,No
2024/05/07,01:50,6.4,4.6,No
2024/05/07,02:00,6.2,4.5,No
2024/05/07,02:10,6.5,4.6,No
2024/05/07,02:20,6.5,4.6,No
2024/05/07,02:30,6.3,4.4,No
2024/05/07,02:40,6.5,4.5,No
2024/05/07,02:50,6.5,4.6,No
2024/05/07,03:00,6.4,4.4,No
2024/05/07,03:10,6.4,4.6,No
2024/05/07,03:20,6.4,4.6,No
2024/05/07,03:30,6.3,4.4,No
2024/05/07,03:40,6.4,4.5,Yes
2024/05/07,03:50,6.3,4.5,No
2024/05/07,04:00,6.3,4.4,Yes
2024/05/07,04:10,6.4,4.6,Yes
2024/05/07,04:20,6.3,4.6,Yes
2024/05/07,04:30,6.4,4.6,Yes
2024/05/07,04:40,6.3,4.6,Yes
2024/05/07,04:50,6.3,4.7,Yes
2024/05/07,05:00,6.5,4.6,Yes
2024/05/07,05:10,6.4,4.6,Yes
2024/05/07,05:20,6.6,4.6,Yes
2024/05/07,05:30,6.6,4.6,Yes
2024/05/07,05:40,6.8,4.7,Yes
2024/05/07,05:50,7.0,4.8,Yes
2024/05/07,06:00,7.0,4.9,Yes
2024/05/07,06:10,7.2,5.3,Yes
2024/05/07,06:20,7.4,5.5,Yes
2024/05/07,06:30,7.1,5.2,Yes
2024/05/07,06:40,7.1,5.0,Yes
2024/05/07,06:50,6.9,5.0,Yes
2024/05/07,07:00,6.7,4.9,Yes
2024/05/07,07:10,6.8,4.8,Yes
2024/05/07,07:20,6.7,4.6,Yes
2024/05/07,07:30,6.7,4.8,Yes
2024/05/07,07:40,6.9,4.8,Yes
2024/05/07,07:50,6.9,4.6,Yes
2024/05/07,08:00,6.8,4.9,Yes
2024/05/07,08:10,6.8,5.0,Yes
2024/05/07,08:20,6.7,4.9,Yes
2024/05/07,08:30,6.9,4.7,Yes
2024/05/07,08:40,6.7,4.7,Yes
2024/05/07,08:50,6.4,4.7,Yes
2024/05/07,09:00,6.7,4.6,Yes
2024/05/07,09:10,6.7,4.5,Yes
2024/05/07,09:20,6.6,4.6,Yes
2024/05/07,09:30,6.7,4.7,Yes
2024/05/07,09:40,6.6,4.8,Yes
2024/05/07,09:50,6.6,4.7,Yes
2024/05/07,10:00,6.7,4.6,Yes
2024/05/07,10:10,6.9,4.7,Yes
2024/05/07,10:20,7.0,4.8,Yes
2024/05/07,10:30,6.8,4.9,Yes
2024/05/07,10:40,6.8,4.9,Yes
2024/05/07,10:50,7.1,4.8,Yes
2024/05/07,11:00,6.9,5.0,Yes
2024/05/07,11:10,7.0,4.9,Yes
2024/05/07,11:20,6.9,4.9,Yes
2024/05/07,11:30,6.9,4.9,Yes
2024/05/07,11:40,7.0,4.8,No
2024/05/07,11:50,6.8,4.9,No
2024/05/07,12:00,6.7,4.8,No
2024/05/07,12:10,6.6,4.8,Yes
2024/05/07,12:20,6.6,4.7,Yes
2024/05/07,12:30,6.5,4.7,No
2024/05/07,12:40,6.4,4.7,No
2024/05/07,12:50,6.6,4.6,Yes
2024/05/07,13:00,6.5,4.6,Yes
2024/05/07,13:10,6.3,4.6,Yes
2024/05/07,13:20,6.5,4.7,Yes
2024/05/07,13:30,6.5,4.7,Yes
2024/05/07,13:40,6.5,4.5,Yes
2024/05/07,13:50,6.7,4.5,Yes
2024/05/07,14:00,6.4,4.6,Yes
2024/05/07,14:10,6.6,4.5,Yes
2024/05/07,14:20,6.5,4.5,Yes
2024/05/07,14:30,6.5,4.7,Yes
2024/05/07,14:40,6.4,4.5,Yes
2024/05/07,14:50,6.3,4.5,No
2024/05/07,15:00,6.5,4.5,No
2024/05/07,15:10,6.4,4.6,Yes
2024/05/07,15:20,6.3,4.4,Yes
2024/05/07,15:30,6.4,4.6,Yes
2024/05/07,15:40,6.3,4.7,Yes
2024/05/07,15:50,6.3,4.6,No
2024/05/07,16:00,6.5,4.7,Yes
2024/05/07,16:10,6.4,4.8,Yes
2024/05/07,16:20,6.5,4.7,Yes
2024/05/07,16:30,6.4,4.8,Yes
2024/05/07,16:40,6.4,4.6,Yes
2024/05/07,16:50,6.4,4.7,Yes
2024/05/07,17:00,6.5,4.7,Yes
2024/05/07,17:10,6.6,4.8,Yes
2024/05/07,17:20,6.5,4.8,Yes
2024/05/07,17:30,6.6,4.7,Yes
2024/05/07,17:40,6.5,4.8,Yes
2024/05/07,17:50,6.6,4.7,Yes
2024/05/07,18:00,6.5,4.6,Yes
2024/05/07,18:10,6.4,4.7,Yes
2024/05/07,18:20,6.3,4.5,Yes
2024/05/07,18:30,6.2,4.7,Yes
2024/05/07,18:40,6.4,4.6,Yes
2024/05/07,18:50,6.4,4.6,Yes
2024/05/07,19:00,6.3,4.8,Yes
2024/05/07,19:10,6.5,4.7,Yes
2024/05/07,19:20,6.5,4.5,Yes
2024/05/07,19:30,6.4,4.6,No
2024/05/07,19:40,6.4,4.6,No
2024/05/07,19:50,6.4,4.5,No
2024/05/07,20:00,6.3,4.7,Yes
2024/05/07,20:10,6.3,4.7,Yes
2024/05/07,20:20,6.2,4.7,Yes
2024/05/07,20:30,6.3,4.6,Yes
2024/05/07,20:40,6.4,4.7,Yes
2024/05/07,20:50,6.4,4.9,Yes
2024/05/07,21:00,6.6,4.8,Yes
2024/05/07,21:10,6.4,4.8,Yes
2024/05/07,21:20,6.4,4.6,No
2024/05/07,21:30,6.3,4.6,No
2024/05/07,21:40,6.3,4.6,Yes
2024/05/07,21:50,6.6,4.6,Yes
2024/05/07,22:00,6.3,4.6,Yes
2024/05/07,22:10,6.2,4.6,Yes
2024/05/07,22:20,6.2,4.8,Yes
2024/05/07,22:30,6.3,4.7,Yes
2024/05/07,22:40,6.4,4.6,Yes
2024/05/07,22:50,6.4,4.5,Yes
2024/05/07,23:00,6.5,4.6,Yes
2024/05/07,23:10,6.3,4.7,Yes
2024/05/07,23:20,6.1,4.6,Yes
2024/05/07,23:30,6.4,4.7,Yes
2024/05/07,23:40,6.4,4.6,Yes
2024/05/07,23:50,6.3,4.7,Yes
